Location: Julian California
(33.0790°N, 116.6010°W)
Time: 21:59:08
(UTC-08:00)

SeaSat 1 - Pass Details

Date: 12 July 2018
Orbit: 744 x 748 km, 108.0° (Epoch: 09 December)

Event Time Altitude Azimuth Distance (km) Brightness Sun altitude
Rises 20:42:45 0° 20° (NNE) 3,188 5.9 -9.1°
Reaches altitude 10° 20:45:02 10° 18° (NNE) 2,260 5.1 -9.5°
Maximum altitude 20:49:55 69° 296° (WNW) 796 2.8 -10.3°
Drops below altitude 10° 20:54:46 10° 214° (SW) 2,246 4.9 -11.2°
Sets 20:57:01 0° 212° (SSW) 3,166 5.7 -11.5°
